Location: Newark
(46.7000°N, 60.6000°W)
Time: 04:25:45
(UTC+00:00)

A-11 Canister half - Pass Details

Date: 28 October 2020
Orbit: 1525 x 1683 km, 47.3° (Epoch: 23 November)

Event Time Altitude Azimuth Distance (km) Brightness Sun altitude
Rises 20:13:22 0° 257° (WSW) 4,763 13.6 5.3°
Reaches altitude 10° 20:16:29 10° 257° (WSW) 3,760 13.1 4.9°
Maximum altitude 20:26:00 89° 171° (S) 1,543 9.2 3.4°
Drops below altitude 10° 20:35:21 10° 81° (E) 3,694 10.4 1.9°
Sets 20:38:22 0° 82° (E) 4,677 10.9 1.4°
